TimeMST,TemperatureF,Dew PointF,Humidity,Sea Level PressureIn,VisibilityMPH,Wind Direction,Wind SpeedMPH,Gust SpeedMPH,PrecipitationIn,Events,Conditions,WindDirDegrees,DateUTC
12:53 AM,39.9,8.1,27,30.06,10.0,SSE,3.5,-,N/A,,Clear,160,2013-01-18 07:53:00
1:53 AM,44.1,5.0,20,30.04,10.0,Calm,Calm,-,N/A,,Clear,0,2013-01-18 08:53:00
2:53 AM,39.9,6.1,25,30.04,10.0,Calm,Calm,-,N/A,,Clear,0,2013-01-18 09:53:00
3:53 AM,36.0,10.0,34,30.04,10.0,WSW,10.4,-,N/A,,Clear,250,2013-01-18 10:53:00
4:53 AM,39.0,8.1,28,30.03,10.0,Calm,Calm,-,N/A,,Clear,0,2013-01-18 11:53:00
5:53 AM,35.1,10.0,35,30.01,10.0,SW,4.6,-,N/A,,Clear,230,2013-01-18 12:53:00
6:53 AM,41.0,7.0,25,30.00,10.0,North,6.9,-,N/A,,Clear,10,2013-01-18 13:53:00
7:53 AM,37.9,7.0,28,30.01,10.0,Calm,Calm,-,N/A,,Clear,0,2013-01-18 14:53:00
8:53 AM,41.0,10.9,29,30.01,10.0,South,5.8,-,N/A,,Clear,190,2013-01-18 15:53:00
9:53 AM,48.9,10.0,21,29.99,10.0,SE,5.8,-,N/A,,Clear,140,2013-01-18 16:53:00
10:53 AM,50.0,16.0,26,29.97,10.0,Calm,Calm,-,N/A,,Clear,0,2013-01-18 17:53:00
11:53 AM,52.0,15.1,23,29.93,10.0,Calm,Calm,-,N/A,,Clear,0,2013-01-18 18:53:00
12:53 PM,48.9,21.9,35,29.90,10.0,SSE,5.8,-,N/A,,Clear,150,2013-01-18 19:53:00
1:53 PM,48.0,23.0,37,29.89,10.0,South,5.8,-,N/A,,Clear,170,2013-01-18 20:53:00
2:53 PM,45.0,26.1,48,29.89,10.0,South,8.1,-,N/A,,Clear,170,2013-01-18 21:53:00
3:53 PM,48.0,23.0,37,29.91,10.0,Variable,4.6,-,N/A,,Clear,0,2013-01-18 22:53:00
4:53 PM,44.1,21.0,40,29.91,10.0,ENE,3.5,-,N/A,,Clear,70,2013-01-18 23:53:00
5:53 PM,45.0,15.1,30,29.93,10.0,NW,5.8,-,N/A,,Clear,320,2013-01-19 00:53:00
6:53 PM,44.1,12.0,27,29.92,10.0,Variable,3.5,-,N/A,,Partly Cloudy,0,2013-01-19 01:53:00
7:53 PM,44.1,12.9,28,29.93,10.0,Variable,5.8,-,N/A,,Mostly Cloudy,0,2013-01-19 02:53:00
8:53 PM,46.0,12.0,25,29.92,10.0,NNW,9.2,-,N/A,,Partly Cloudy,340,2013-01-19 03:53:00
9:53 PM,45.0,12.0,26,29.92,10.0,NE,4.6,-,N/A,,Overcast,50,2013-01-19 04:53:00
10:53 PM,43.0,14.0,31,29.94,10.0,Variable,4.6,-,N/A,,Overcast,0,2013-01-19 05:53:00
11:53 PM,42.1,12.9,31,29.96,10.0,North,5.8,-,N/A,,Clear,360,2013-01-19 06:53:00